Location: Easter Hill Village
(37.9235°N, 122.3444°W)
Time: 04:37:54
(UTC+00:00)

Atlas Centaur 2 - Pass Details

Date: 16 September 2019
Orbit: 459 x 1311 km, 30.4° (Epoch: 14 October)

Event Time Altitude Azimuth Distance (km) Brightness Sun altitude
Exits shadow 12:58:35 14° 254° (WSW) 2,641 4.1 -11.2°
Maximum altitude 13:04:40 46° 186° (S) 1,564 3.5 -10.1°
Drops below altitude 10° 13:12:35 10° 117° (ESE) 3,299 6.1 -8.5°
Sets 13:15:46 0° 112° (ESE) 4,290 7.0 -7.9°
